CHINASAT 9A (ZX 9A)

Last updated on Jan. 29, 2020, 4:37 a.m. UTC

1 42763U 17035A   20028.93922589 -.00000314  00000-0  00000-0 0  9996
2 42763   0.0337 225.1924 0001389 208.7790 133.2317  1.00270597 10277
UTC
Height (km)
Latitude
Longitude
Inclination
Orbital Period
UTC large
Height (km)
Speed (km/s)
/
Latitude / Longitude
Inclination (degrees)
Orbital Period (minutes)
Azimuth
Elevation
Range (km)
Doppler Factor
iOS Compass Heading
iOS Angle

Next 30 passes for location: Hong Kong

Rise time Rise Azimuth (degrees) Set time Set Azimuth (degrees) Duration Max altitude (degrees)

No matching passes for this satellites